TAM3020 SCTE-SPSO

Flight info

Callsign TAM3020
Flight time N/A
Altitude 38000
Route KIKOP6C KIKOP UV200 PANEX UT105 CAR UT134 ATEDA UL302 ELASA/N0482F400 UL302 ILMAR
Aircraft B77L/H-SDE1E2E3FGHIJ2J3J4J5M1RWXY/LB1D1

Departure

Time 2026-04-21 09:28
Airport El Tepual International Airport (SCTE)

Arrival

Time N/A
Airport Captain Renán Elías Olivera International Airport (SPSO)
Time Latitude Longitude Altitude Speed Heading
2026-04-21 08:52 -41.43364 -73.09738 275 ft 0 kts 271°
2026-04-21 09:17 -41.43364 -73.09719 277 ft 2 kts 267°
2026-04-21 09:17 -41.43362 -73.09697 277 ft 2 kts 261°
2026-04-21 09:18 -41.43358 -73.09676 282 ft 2 kts 248°
2026-04-21 09:18 -41.43350 -73.09657 280 ft 2 kts 220°
2026-04-21 09:18 -41.43335 -73.09647 281 ft 2 kts 190°
2026-04-21 09:18 -41.43327 -73.09646 277 ft 0 kts 184°
2026-04-21 09:19 -41.43326 -73.09646 277 ft 0 kts 184°
2026-04-21 09:22 -41.43327 -73.09646 277 ft 1 kts 183°
2026-04-21 09:22 -41.43363 -73.09624 279 ft 11 kts 152°
2026-04-21 09:22 -41.43478 -73.09602 277 ft 23 kts 180°
2026-04-21 09:23 -41.43673 -73.09607 279 ft 33 kts 181°
2026-04-21 09:23 -41.43929 -73.09615 282 ft 32 kts 181°
2026-04-21 09:23 -41.44131 -73.09624 284 ft 22 kts 181°
2026-04-21 09:23 -41.44285 -73.09629 285 ft 22 kts 181°
2026-04-21 09:24 -41.44435 -73.09634 287 ft 21 kts 181°
2026-04-21 09:24 -41.44580 -73.09638 292 ft 21 kts 181°
2026-04-21 09:24 -41.44723 -73.09643 293 ft 20 kts 181°
2026-04-21 09:24 -41.44859 -73.09648 295 ft 19 kts 181°
2026-04-21 09:25 -41.44986 -73.09653 298 ft 13 kts 181°
2026-04-21 09:25 -41.45046 -73.09620 299 ft 10 kts 124°
2026-04-21 09:25 -41.45056 -73.09591 298 ft 0 kts 108°
2026-04-21 09:27 -41.45056 -73.09590 298 ft 3 kts 108°
2026-04-21 09:27 -41.45069 -73.09494 298 ft 8 kts 96°
2026-04-21 09:27 -41.45042 -73.09441 295 ft 8 kts 21°
2026-04-21 09:27 -41.45022 -73.09438 298 ft 0 kts
2026-04-21 09:28 -41.44907 -73.09435 297 ft 51 kts
2026-04-21 09:28 -41.44123 -73.09392 297 ft 171 kts
2026-04-21 09:28 -41.42864 -73.09310 1527 ft 173 kts
2026-04-21 09:28 -41.41653 -73.09272 2939 ft 189 kts
2026-04-21 09:29 -41.40177 -73.09209 3159 ft 235 kts
2026-04-21 09:29 -41.38443 -73.09158 3965 ft 252 kts 360°
2026-04-21 09:29 -41.36706 -73.09122 5448 ft 249 kts 359°
2026-04-21 09:29 -41.34928 -73.09069 6490 ft 263 kts 358°
2026-04-21 09:30 -41.33068 -73.09011 7519 ft 272 kts 358°
2026-04-21 09:30 -41.31157 -73.08948 8677 ft 277 kts 359°
2026-04-21 09:30 -41.29215 -73.08880 9839 ft 282 kts 359°
2026-04-21 09:30 -41.27228 -73.08809 10849 ft 292 kts 359°
2026-04-21 09:31 -41.25139 -73.08747 11366 ft 320 kts 358°
2026-04-21 09:31 -41.22764 -73.08761 11642 ft 355 kts 357°
2026-04-21 09:31 -41.20202 -73.08810 12243 ft 376 kts 357°
2026-04-21 09:31 -41.17560 -73.08859 13286 ft 384 kts 357°
2026-04-21 09:32 -41.14865 -73.08904 14404 ft 390 kts 357°
2026-04-21 09:32 -41.12172 -73.08944 15430 ft 395 kts 357°
2026-04-21 09:32 -41.10309 -73.08969 16149 ft 398 kts 357°
2026-04-21 09:32 -41.06615 -73.09018 17534 ft 404 kts 357°
2026-04-21 09:33 -41.04712 -73.09043 18221 ft 408 kts 357°
2026-04-21 09:33 -41.00923 -73.09091 19393 ft 415 kts 357°
2026-04-21 09:33 -40.98021 -73.09129 20235 ft 421 kts 357°
2026-04-21 09:33 -40.95071 -73.09168 21069 ft 426 kts 357°
2026-04-21 09:34 -40.93060 -73.09194 21601 ft 430 kts 358°
2026-04-21 09:34 -40.90037 -73.09210 22347 ft 438 kts 358°
2026-04-21 09:34 -40.86972 -73.09194 23149 ft 444 kts 358°
2026-04-21 09:34 -40.83868 -73.09165 23962 ft 448 kts 359°
2026-04-21 09:35 -40.80734 -73.09135 24668 ft 453 kts 358°
2026-04-21 09:35 -40.77572 -73.09107 25394 ft 456 kts 358°
2026-04-21 09:35 -40.74443 -73.09083 26092 ft 460 kts 358°
2026-04-21 09:35 -40.71224 -73.09061 26739 ft 465 kts 358°
2026-04-21 09:36 -40.67972 -73.09041 27344 ft 471 kts 358°
2026-04-21 09:36 -40.64638 -73.09020 28011 ft 475 kts 357°
2026-04-21 09:36 -40.61370 -73.09000 28669 ft 478 kts 357°
2026-04-21 09:36 -40.58027 -73.08979 29314 ft 482 kts 357°
2026-04-21 09:37 -40.54663 -73.08958 29894 ft 486 kts 357°
2026-04-21 09:37 -40.51273 -73.08937 30435 ft 489 kts 357°
2026-04-21 09:37 -40.47882 -73.08915 31030 ft 488 kts 357°
2026-04-21 09:37 -40.44501 -73.08892 31778 ft 484 kts 356°
2026-04-21 09:38 -40.41150 -73.08869 32564 ft 479 kts 356°
2026-04-21 09:38 -40.37826 -73.08847 33293 ft 476 kts 356°
2026-04-21 09:38 -40.34518 -73.08827 33953 ft 474 kts 356°
2026-04-21 09:38 -40.31228 -73.08808 34542 ft 472 kts 356°
2026-04-21 09:39 -40.27947 -73.08788 35034 ft 471 kts 356°
2026-04-21 09:39 -40.24671 -73.08769 35557 ft 469 kts 356°
2026-04-21 09:39 -40.21416 -73.08754 36123 ft 466 kts 356°
2026-04-21 09:39 -40.18186 -73.08741 36671 ft 463 kts 356°
2026-04-21 09:40 -40.14966 -73.08730 37195 ft 461 kts 356°
2026-04-21 09:40 -40.11765 -73.08720 37698 ft 459 kts 356°
2026-04-21 09:40 -40.08575 -73.08708 38162 ft 458 kts 356°
2026-04-21 09:40 -40.05381 -73.08698 38271 ft 461 kts 356°
2026-04-21 09:41 -39.98972 -73.08676 38265 ft 459 kts 356°
2026-04-21 09:41 -39.92599 -73.08651 38275 ft 457 kts 356°
2026-04-21 09:42 -39.86250 -73.08627 38268 ft 456 kts 356°
2026-04-21 09:42 -39.79910 -73.08603 38273 ft 455 kts 356°
2026-04-21 09:43 -39.73569 -73.08580 38273 ft 456 kts 356°
2026-04-21 09:43 -39.67220 -73.08556 38269 ft 456 kts 356°
2026-04-21 09:44 -39.60863 -73.08566 38265 ft 457 kts 356°
2026-04-21 09:44 -39.54499 -73.08600 38270 ft 458 kts 356°
2026-04-21 09:45 -39.48122 -73.08632 38280 ft 459 kts 356°
2026-04-21 09:45 -39.41770 -73.08660 38260 ft 460 kts 356°
2026-04-21 09:46 -39.35374 -73.08685 38273 ft 460 kts 356°
2026-04-21 09:46 -39.28967 -73.08710 38268 ft 461 kts 356°
2026-04-21 09:47 -39.22554 -73.08735 38261 ft 461 kts 356°
2026-04-21 09:47 -39.16144 -73.08760 38275 ft 460 kts 356°
2026-04-21 09:48 -39.09736 -73.08786 38265 ft 460 kts 356°
2026-04-21 09:48 -39.03332 -73.08811 38271 ft 460 kts 356°
2026-04-21 09:49 -38.96931 -73.08837 38261 ft 460 kts 356°
2026-04-21 09:49 -38.90532 -73.08862 38266 ft 460 kts 356°
2026-04-21 09:50 -38.86288 -73.08879 38276 ft 460 kts 356°
2026-04-21 09:50 -38.77722 -73.08913 38256 ft 460 kts 356°
2026-04-21 09:51 -38.71320 -73.08939 38271 ft 460 kts 356°
2026-04-21 09:51 -38.64911 -73.08963 38273 ft 461 kts 356°
2026-04-21 09:52 -38.58495 -73.08989 38268 ft 461 kts 356°
2026-04-21 09:52 -38.52122 -73.09014 38263 ft 461 kts 356°
2026-04-21 09:53 -38.45701 -73.09039 38262 ft 462 kts 356°
2026-04-21 09:53 -38.39276 -73.09064 38271 ft 462 kts 356°
2026-04-21 09:54 -38.32843 -73.09089 38248 ft 462 kts 356°
2026-04-21 09:54 -38.26410 -73.09114 38265 ft 462 kts 356°
2026-04-21 09:55 -38.19977 -73.09139 38262 ft 462 kts 356°
2026-04-21 09:55 -38.13539 -73.09164 38265 ft 463 kts 356°
2026-04-21 09:56 -38.07106 -73.09189 38257 ft 462 kts 356°
2026-04-21 09:56 -38.00667 -73.09214 38248 ft 462 kts 356°
2026-04-21 09:57 -37.94238 -73.09238 38252 ft 462 kts 356°
2026-04-21 09:57 -37.87813 -73.09263 38239 ft 461 kts 356°
2026-04-21 09:58 -37.81392 -73.09288 38245 ft 461 kts 356°
2026-04-21 09:58 -37.74968 -73.09296 38256 ft 462 kts 357°
2026-04-21 09:59 -37.68531 -73.09064 38251 ft 463 kts 359°
2026-04-21 09:59 -37.62099 -73.08754 38253 ft 463 kts 359°
2026-04-21 10:00 -37.55703 -73.08471 38241 ft 463 kts 358°
2026-04-21 10:00 -37.49259 -73.08210 38242 ft 463 kts 358°
2026-04-21 10:01 -37.42815 -73.07955 38218 ft 463 kts 358°
2026-04-21 10:01 -37.36378 -73.07700 38230 ft 463 kts 358°
2026-04-21 10:02 -37.26722 -73.07318 38233 ft 463 kts 358°
2026-04-21 10:03 -37.20285 -73.07064 38218 ft 463 kts 358°
2026-04-21 10:03 -37.13845 -73.06810 38212 ft 463 kts 358°
2026-04-21 10:04 -37.07406 -73.06555 38227 ft 463 kts 358°
2026-04-21 10:04 -37.00970 -73.06302 38225 ft 462 kts 358°
2026-04-21 10:05 -36.94580 -73.06051 38198 ft 462 kts 358°
2026-04-21 10:05 -36.88152 -73.05799 38208 ft 462 kts 358°
2026-04-21 10:06 -36.81718 -73.05547 38214 ft 463 kts 358°
2026-04-21 10:06 -36.75284 -73.05295 38210 ft 463 kts 359°
2026-04-21 10:07 -36.68843 -73.04881 38205 ft 464 kts 360°
2026-04-21 10:07 -36.62400 -73.04372 38213 ft 464 kts
2026-04-21 10:08 -36.55958 -73.03875 38202 ft 464 kts 360°
2026-04-21 10:08 -36.49513 -73.03399 38208 ft 464 kts 360°
2026-04-21 10:09 -36.43073 -73.02930 38202 ft 464 kts 360°
2026-04-21 10:09 -36.36628 -73.02462 38203 ft 464 kts 360°
2026-04-21 10:10 -36.30185 -73.01995 38193 ft 464 kts 360°
2026-04-21 10:10 -36.23731 -73.01526 38180 ft 464 kts 359°
2026-04-21 10:11 -36.17281 -73.01059 38203 ft 464 kts 359°
2026-04-21 10:11 -36.10828 -73.00592 38202 ft 465 kts 359°
2026-04-21 10:12 -36.04415 -73.00129 38188 ft 465 kts 359°
2026-04-21 10:12 -35.97958 -72.99664 38185 ft 465 kts 359°
2026-04-21 10:13 -35.91506 -72.99199 38194 ft 465 kts 359°
2026-04-21 10:13 -35.85053 -72.98735 38190 ft 464 kts 359°
2026-04-21 10:14 -35.78602 -72.98272 38185 ft 464 kts 359°
2026-04-21 10:14 -35.72154 -72.97811 38181 ft 464 kts 359°
2026-04-21 10:15 -35.65706 -72.97351 38186 ft 464 kts 359°
2026-04-21 10:15 -35.59261 -72.96892 38182 ft 464 kts 359°
2026-04-21 10:16 -35.52822 -72.96434 38183 ft 464 kts 359°
2026-04-21 10:16 -35.46382 -72.95975 38177 ft 463 kts 359°
2026-04-21 10:17 -35.39939 -72.95518 38181 ft 463 kts 359°
2026-04-21 10:17 -35.33503 -72.95061 38169 ft 464 kts 358°
2026-04-21 10:18 -35.27058 -72.94602 38178 ft 464 kts 358°
2026-04-21 10:18 -35.20614 -72.94150 38170 ft 464 kts 358°
2026-04-21 10:19 -35.14167 -72.93697 38171 ft 464 kts 358°
2026-04-21 10:19 -35.07714 -72.93243 38175 ft 465 kts 358°
2026-04-21 10:20 -35.01295 -72.92792 38148 ft 464 kts 358°
2026-04-21 10:20 -34.94846 -72.92339 38166 ft 464 kts 358°
2026-04-21 10:21 -34.88395 -72.91887 38176 ft 464 kts 358°
2026-04-21 10:21 -34.81938 -72.91436 38168 ft 465 kts 358°
2026-04-21 10:22 -34.76573 -72.91060 38150 ft 464 kts 358°
2026-04-21 10:22 -34.70130 -72.90611 38166 ft 464 kts 358°
2026-04-21 10:23 -34.63684 -72.90162 38169 ft 463 kts 358°
2026-04-21 10:23 -34.57247 -72.89714 38166 ft 463 kts 358°
2026-04-21 10:24 -34.50813 -72.89267 38165 ft 463 kts 357°
2026-04-21 10:24 -34.44387 -72.88821 38165 ft 462 kts 357°
2026-04-21 10:25 -34.37962 -72.88377 38165 ft 462 kts 357°
2026-04-21 10:25 -34.31540 -72.87933 38162 ft 462 kts 357°
2026-04-21 10:26 -34.25124 -72.87489 38157 ft 461 kts 356°
2026-04-21 10:26 -34.18718 -72.87048 38156 ft 461 kts 356°
2026-04-21 10:27 -34.12321 -72.86609 38162 ft 460 kts 356°
2026-04-21 10:27 -34.05927 -72.86169 38160 ft 460 kts 356°
2026-04-21 10:28 -33.99536 -72.85730 38149 ft 460 kts 356°
2026-04-21 10:28 -33.93154 -72.85293 38165 ft 459 kts 356°
2026-04-21 10:29 -33.86773 -72.84857 38165 ft 459 kts 356°
2026-04-21 10:29 -33.80395 -72.84421 38151 ft 459 kts 356°
2026-04-21 10:30 -33.74023 -72.83986 38149 ft 458 kts 355°
2026-04-21 10:30 -33.67654 -72.83549 38158 ft 458 kts 355°
2026-04-21 10:31 -33.61293 -72.83115 38150 ft 458 kts 355°
2026-04-21 10:31 -33.54929 -72.82684 38152 ft 458 kts 355°
2026-04-21 10:32 -33.48571 -72.82253 38146 ft 457 kts 354°
2026-04-21 10:32 -33.42261 -72.81825 38149 ft 457 kts 354°
2026-04-21 10:33 -33.35911 -72.81396 38150 ft 457 kts 354°
2026-04-21 10:33 -33.29560 -72.80967 38145 ft 457 kts 354°
2026-04-21 10:34 -33.23211 -72.80538 38139 ft 456 kts 354°
2026-04-21 10:34 -33.16867 -72.80111 38140 ft 456 kts 354°
2026-04-21 10:35 -33.10533 -72.79685 38146 ft 456 kts 354°
2026-04-21 10:35 -33.04197 -72.79261 38145 ft 456 kts 354°
2026-04-21 10:36 -32.97863 -72.78839 38138 ft 455 kts 353°
2026-04-21 10:36 -32.91544 -72.78418 38133 ft 455 kts 353°
2026-04-21 10:37 -32.85225 -72.77999 38136 ft 454 kts 353°
2026-04-21 10:37 -32.78911 -72.77580 38149 ft 454 kts 353°
2026-04-21 10:38 -32.72604 -72.77162 38148 ft 454 kts 353°
2026-04-21 10:38 -32.66333 -72.76746 38145 ft 454 kts 353°
2026-04-21 10:39 -32.60024 -72.76327 38138 ft 454 kts 353°
2026-04-21 10:39 -32.53713 -72.75909 38146 ft 454 kts 353°
2026-04-21 10:40 -32.47398 -72.75491 38124 ft 454 kts 352°
2026-04-21 10:40 -32.41089 -72.75073 38139 ft 454 kts 352°
2026-04-21 10:41 -32.34777 -72.74657 38142 ft 454 kts 352°
2026-04-21 10:41 -32.28470 -72.74241 38143 ft 454 kts 352°
2026-04-21 10:42 -32.22157 -72.73826 38106 ft 454 kts 352°
2026-04-21 10:42 -32.15856 -72.73410 38139 ft 453 kts 352°
2026-04-21 10:43 -32.09561 -72.72997 38143 ft 453 kts 352°
2026-04-21 10:43 -32.03268 -72.72585 38141 ft 453 kts 352°
2026-04-21 10:44 -31.96977 -72.72173 38142 ft 453 kts 352°
2026-04-21 10:44 -31.90691 -72.71762 38137 ft 452 kts 352°
2026-04-21 10:45 -31.84408 -72.71352 38137 ft 452 kts 352°
2026-04-21 10:45 -31.78162 -72.70946 38140 ft 453 kts 352°
2026-04-21 10:46 -31.71872 -72.70536 38146 ft 453 kts 352°
2026-04-21 10:46 -31.65578 -72.70127 38140 ft 453 kts 352°
2026-04-21 10:47 -31.59279 -72.69718 38139 ft 453 kts 352°
2026-04-21 10:47 -31.52976 -72.69309 38142 ft 454 kts 352°
2026-04-21 10:48 -31.46671 -72.68901 38142 ft 454 kts 352°
2026-04-21 10:48 -31.40364 -72.68493 38115 ft 454 kts 353°
2026-04-21 10:49 -31.34060 -72.68085 38130 ft 454 kts 353°
2026-04-21 10:49 -31.27754 -72.67679 38133 ft 454 kts 353°
2026-04-21 10:50 -31.21441 -72.67272 38142 ft 454 kts 353°
2026-04-21 10:50 -31.15125 -72.66866 38096 ft 454 kts 353°
2026-04-21 10:51 -31.08819 -72.66460 38123 ft 454 kts 353°
2026-04-21 10:51 -31.02563 -72.66059 38130 ft 453 kts 353°
2026-04-21 10:52 -30.96258 -72.65655 38137 ft 453 kts 353°
2026-04-21 10:52 -30.89952 -72.65251 38137 ft 453 kts 353°
2026-04-21 10:53 -30.83660 -72.64847 38128 ft 452 kts 352°
2026-04-21 10:53 -30.77385 -72.64446 38128 ft 451 kts 352°
2026-04-21 10:54 -30.71114 -72.64046 38131 ft 451 kts 352°
2026-04-21 10:54 -30.64850 -72.63647 38127 ft 451 kts 352°
2026-04-21 10:55 -30.58591 -72.63249 38117 ft 450 kts 352°
2026-04-21 10:55 -30.52342 -72.62851 38128 ft 449 kts 352°
2026-04-21 10:56 -30.46103 -72.62455 38129 ft 449 kts 352°
2026-04-21 10:56 -30.39868 -72.62060 38133 ft 449 kts 352°
2026-04-21 10:57 -30.33635 -72.61666 38086 ft 448 kts 352°
2026-04-21 10:57 -30.27414 -72.61271 38119 ft 447 kts 352°
2026-04-21 10:58 -30.21204 -72.60879 38125 ft 447 kts 352°
2026-04-21 10:58 -30.15040 -72.60490 38130 ft 446 kts 352°
2026-04-21 10:59 -30.08845 -72.60099 38118 ft 446 kts 352°
2026-04-21 10:59 -30.02644 -72.59710 38129 ft 446 kts 352°
2026-04-21 11:00 -29.96445 -72.59321 38128 ft 447 kts 352°
2026-04-21 11:00 -29.90239 -72.58932 38131 ft 447 kts 352°
2026-04-21 11:01 -29.84017 -72.58541 38131 ft 447 kts 352°
2026-04-21 11:01 -29.77802 -72.58152 38103 ft 447 kts 352°
2026-04-21 11:02 -29.68483 -72.57569 38124 ft 447 kts 352°
2026-04-21 11:02 -29.62279 -72.57182 38125 ft 446 kts 352°
2026-04-21 11:03 -29.56076 -72.56795 38128 ft 446 kts 352°
2026-04-21 11:03 -29.49920 -72.56412 38099 ft 446 kts 352°
2026-04-21 11:04 -29.43734 -72.56026 38117 ft 445 kts 352°
2026-04-21 11:04 -29.37559 -72.55643 38123 ft 444 kts 352°
2026-04-21 11:05 -29.31384 -72.55260 38126 ft 444 kts 352°
2026-04-21 11:05 -29.25213 -72.54878 38126 ft 444 kts 352°
2026-04-21 11:06 -29.19044 -72.54496 38120 ft 443 kts 352°
2026-04-21 11:06 -29.12883 -72.54115 38125 ft 443 kts 352°
2026-04-21 11:07 -29.06724 -72.53734 38128 ft 443 kts 352°
2026-04-21 11:07 -29.00568 -72.53355 38124 ft 443 kts 352°
2026-04-21 11:08 -28.94399 -72.52975 38085 ft 443 kts 352°
2026-04-21 11:08 -28.88251 -72.52596 38111 ft 443 kts 352°
2026-04-21 11:09 -28.82094 -72.52218 38120 ft 443 kts 352°
2026-04-21 11:09 -28.75939 -72.51840 38121 ft 443 kts 352°
2026-04-21 11:10 -28.69789 -72.51462 38122 ft 443 kts 352°
2026-04-21 11:10 -28.63672 -72.51088 38166 ft 444 kts 352°
2026-04-21 11:11 -28.60581 -72.50900 38504 ft 445 kts 352°
2026-04-21 11:11 -28.57494 -72.50708 38956 ft 442 kts 353°
2026-04-21 11:11 -28.54428 -72.50519 39321 ft 441 kts 353°
2026-04-21 11:11 -28.52361 -72.50393 39538 ft 441 kts 353°
2026-04-21 11:12 -28.49336 -72.50209 39811 ft 441 kts 353°
2026-04-21 11:12 -28.46267 -72.50024 40036 ft 443 kts 353°
2026-04-21 11:12 -28.40082 -72.49652 40105 ft 445 kts 353°
2026-04-21 11:13 -28.33932 -72.49272 40114 ft 439 kts 353°
2026-04-21 11:13 -28.27860 -72.48899 40117 ft 435 kts 353°
2026-04-21 11:14 -28.21837 -72.48536 40122 ft 433 kts 353°
2026-04-21 11:14 -28.15825 -72.48176 40125 ft 433 kts 353°
2026-04-21 11:15 -28.09797 -72.47814 40099 ft 435 kts 353°
2026-04-21 11:15 -28.03755 -72.47449 40118 ft 435 kts 352°
2026-04-21 11:16 -27.97704 -72.47084 40125 ft 436 kts 353°
2026-04-21 11:16 -27.91640 -72.46719 40123 ft 437 kts 353°
2026-04-21 11:17 -27.85567 -72.46353 40122 ft 437 kts 353°
2026-04-21 11:17 -27.79496 -72.45987 40108 ft 436 kts 352°
2026-04-21 11:18 -27.73441 -72.45622 40117 ft 435 kts 352°
2026-04-21 11:18 -27.67408 -72.45260 40115 ft 433 kts 352°
2026-04-21 11:19 -27.61395 -72.44901 40119 ft 432 kts 352°
2026-04-21 11:19 -27.55431 -72.44743 40124 ft 421 kts 346°
2026-04-21 11:20 -27.49699 -72.45617 40113 ft 411 kts 340°
2026-04-21 11:20 -27.44244 -72.47281 40122 ft 404 kts 335°
2026-04-21 11:21 -27.38873 -72.49155 40124 ft 404 kts 335°
2026-04-21 11:21 -27.33525 -72.51019 40123 ft 405 kts 335°
2026-04-21 11:22 -27.28134 -72.52882 40123 ft 406 kts 335°
2026-04-21 11:22 -27.22726 -72.54740 40124 ft 406 kts 335°
2026-04-21 11:23 -27.17312 -72.56596 40125 ft 407 kts 335°
2026-04-21 11:23 -27.11890 -72.58451 40125 ft 407 kts 335°
2026-04-21 11:24 -27.06468 -72.60306 40146 ft 408 kts 335°
2026-04-21 11:24 -27.01035 -72.62162 40134 ft 408 kts 335°
2026-04-21 11:25 -26.95611 -72.64014 40111 ft 407 kts 335°
2026-04-21 11:25 -26.90196 -72.65860 40120 ft 407 kts 335°
2026-04-21 11:26 -26.84780 -72.67704 40125 ft 406 kts 335°
2026-04-21 11:26 -26.79415 -72.69530 40125 ft 406 kts 335°
2026-04-21 11:27 -26.74013 -72.71367 40129 ft 406 kts 335°
2026-04-21 11:27 -26.68608 -72.73203 40103 ft 406 kts 336°
2026-04-21 11:28 -26.63203 -72.75037 40120 ft 406 kts 336°
2026-04-21 11:28 -26.57797 -72.76870 40130 ft 406 kts 336°
2026-04-21 11:29 -26.52380 -72.78705 40129 ft 407 kts 336°
2026-04-21 11:29 -26.46957 -72.80539 40128 ft 408 kts 336°
2026-04-21 11:30 -26.41556 -72.82365 40107 ft 408 kts 336°
2026-04-21 11:30 -26.36118 -72.84200 40125 ft 408 kts 336°
2026-04-21 11:31 -26.30683 -72.86034 40133 ft 408 kts 336°
2026-04-21 11:31 -26.25242 -72.87867 40136 ft 409 kts 336°
2026-04-21 11:32 -26.19796 -72.89701 40130 ft 409 kts 336°
2026-04-21 11:32 -26.14350 -72.91532 40125 ft 409 kts 336°
2026-04-21 11:33 -26.08912 -72.93359 40120 ft 408 kts 336°
2026-04-21 11:33 -26.03474 -72.95184 40144 ft 408 kts 336°
2026-04-21 11:34 -25.98034 -72.97008 40133 ft 408 kts 336°
2026-04-21 11:34 -25.92597 -72.98830 40129 ft 408 kts 336°
2026-04-21 11:35 -25.87163 -73.00648 40130 ft 408 kts 336°
2026-04-21 11:35 -25.81730 -73.02465 40114 ft 407 kts 337°
2026-04-21 11:36 -25.76309 -73.04276 40124 ft 407 kts 337°
2026-04-21 11:36 -25.70914 -73.06077 40125 ft 407 kts 337°
2026-04-21 11:37 -25.65486 -73.07887 40126 ft 408 kts 337°
2026-04-21 11:37 -25.60050 -73.09698 40128 ft 408 kts 337°
2026-04-21 11:38 -25.54612 -73.11508 40118 ft 408 kts 337°
2026-04-21 11:38 -25.49173 -73.13316 40124 ft 408 kts 337°
2026-04-21 11:39 -25.43721 -73.15127 40129 ft 409 kts 337°
2026-04-21 11:39 -25.38266 -73.16937 40124 ft 409 kts 337°
2026-04-21 11:40 -25.32805 -73.18747 40124 ft 410 kts 337°
2026-04-21 11:40 -25.27348 -73.20555 40098 ft 410 kts 338°
2026-04-21 11:41 -25.21890 -73.22361 40116 ft 410 kts 338°
2026-04-21 11:41 -25.16420 -73.24169 40126 ft 410 kts 338°
2026-04-21 11:42 -25.10956 -73.25974 40125 ft 410 kts 338°
2026-04-21 11:42 -25.05489 -73.27778 40126 ft 410 kts 338°
2026-04-21 11:43 -25.00016 -73.29582 40123 ft 410 kts 338°
2026-04-21 11:43 -24.94585 -73.31371 40124 ft 410 kts 338°
2026-04-21 11:44 -24.89113 -73.33171 40121 ft 410 kts 338°
2026-04-21 11:44 -24.83641 -73.34970 40122 ft 410 kts 338°
2026-04-21 11:45 -24.78181 -73.36763 40122 ft 410 kts 338°
2026-04-21 11:45 -24.72712 -73.38558 40122 ft 410 kts 338°
2026-04-21 11:46 -24.67253 -73.40348 40109 ft 409 kts 338°
2026-04-21 11:46 -24.61792 -73.42137 40115 ft 409 kts 338°
2026-04-21 11:47 -24.56327 -73.43925 40115 ft 410 kts 338°
2026-04-21 11:47 -24.50858 -73.45714 40119 ft 410 kts 338°
2026-04-21 11:48 -24.45383 -73.47502 40115 ft 411 kts 338°
2026-04-21 11:48 -24.39901 -73.49291 40117 ft 411 kts 338°
2026-04-21 11:49 -24.34416 -73.51080 40119 ft 411 kts 338°
2026-04-21 11:49 -24.28929 -73.52867 40116 ft 411 kts 338°
2026-04-21 11:50 -24.23438 -73.54654 40119 ft 411 kts 338°
2026-04-21 11:50 -24.17954 -73.56438 40120 ft 411 kts 338°
2026-04-21 11:51 -24.12497 -73.58211 40121 ft 411 kts 338°
2026-04-21 11:51 -24.07010 -73.59993 40110 ft 411 kts 338°
2026-04-21 11:52 -24.01529 -73.61771 40122 ft 411 kts 338°
2026-04-21 11:52 -23.96036 -73.63552 40120 ft 411 kts 338°
2026-04-21 11:53 -23.90538 -73.65336 40121 ft 412 kts 338°
2026-04-21 11:53 -23.85047 -73.67117 40109 ft 412 kts 338°
2026-04-21 11:54 -23.79552 -73.68897 40107 ft 412 kts 338°
2026-04-21 11:54 -23.74064 -73.70673 40114 ft 411 kts 338°
2026-04-21 11:55 -23.68603 -73.72438 40116 ft 412 kts 338°
2026-04-21 11:55 -23.63111 -73.74213 40117 ft 412 kts 338°
2026-04-21 11:56 -23.57616 -73.75987 40115 ft 412 kts 338°
2026-04-21 11:56 -23.52118 -73.77760 40097 ft 412 kts 338°
2026-04-21 11:57 -23.46627 -73.79530 40115 ft 412 kts 339°
2026-04-21 11:57 -23.41126 -73.81301 40118 ft 412 kts 339°
2026-04-21 11:58 -23.36553 -73.82772 40114 ft 412 kts 339°
2026-04-21 11:58 -23.31048 -73.84542 40115 ft 413 kts 339°
2026-04-21 11:59 -23.24639 -73.86600 40117 ft 413 kts 339°
2026-04-21 11:59 -23.20021 -73.88082 40104 ft 413 kts 339°
2026-04-21 12:00 -23.14505 -73.89850 40114 ft 413 kts 339°
2026-04-21 12:00 -23.08980 -73.91620 40116 ft 414 kts 339°
2026-04-21 12:01 -23.03453 -73.93389 40118 ft 414 kts 339°
2026-04-21 12:01 -22.97960 -73.95146 40117 ft 415 kts 339°
2026-04-21 12:02 -22.89648 -73.97801 40104 ft 415 kts 339°
2026-04-21 12:03 -22.84110 -73.99568 40114 ft 415 kts 339°
2026-04-21 12:03 -22.78571 -74.01334 40123 ft 415 kts 339°
2026-04-21 12:04 -22.73024 -74.03101 40111 ft 415 kts 339°
2026-04-21 12:04 -22.67483 -74.04865 40111 ft 415 kts 339°
2026-04-21 12:05 -22.61977 -74.06616 40095 ft 414 kts 339°
2026-04-21 12:05 -22.56447 -74.08373 40111 ft 414 kts 339°
2026-04-21 12:06 -22.50918 -74.10129 40115 ft 414 kts 339°
2026-04-21 12:06 -22.45377 -74.11887 40115 ft 415 kts 339°
2026-04-21 12:07 -22.39839 -74.13642 40113 ft 415 kts 339°
2026-04-21 12:07 -22.34294 -74.15399 40111 ft 415 kts 339°
2026-04-21 12:08 -22.28749 -74.17153 40101 ft 416 kts 339°
2026-04-21 12:08 -22.23188 -74.18912 40110 ft 416 kts 339°
2026-04-21 12:09 -22.17626 -74.20669 40107 ft 417 kts 339°
2026-04-21 12:09 -22.12054 -74.22428 40107 ft 417 kts 339°
2026-04-21 12:10 -22.06476 -74.24187 40104 ft 418 kts 339°
2026-04-21 12:10 -22.00896 -74.25946 40086 ft 418 kts 340°
2026-04-21 12:11 -21.95317 -74.27702 40105 ft 418 kts 340°
2026-04-21 12:11 -21.89757 -74.29452 40105 ft 418 kts 340°
2026-04-21 12:12 -21.84166 -74.31210 40105 ft 419 kts 340°
2026-04-21 12:12 -21.78565 -74.32969 40103 ft 419 kts 340°
2026-04-21 12:13 -21.72959 -74.34728 40106 ft 419 kts 340°
2026-04-21 12:13 -21.67354 -74.36487 40102 ft 419 kts 340°
2026-04-21 12:14 -21.61748 -74.38243 40101 ft 419 kts 340°
2026-04-21 12:14 -21.56143 -74.39998 40106 ft 419 kts 340°
2026-04-21 12:15 -21.50536 -74.41752 40104 ft 419 kts 340°
2026-04-21 12:15 -21.44944 -74.43500 40100 ft 419 kts 340°
2026-04-21 12:16 -21.39387 -74.45236 40100 ft 418 kts 340°
2026-04-21 12:16 -21.33793 -74.46982 40101 ft 418 kts 340°
2026-04-21 12:17 -21.28198 -74.48727 40096 ft 418 kts 340°
2026-04-21 12:17 -21.22611 -74.50469 40103 ft 418 kts 340°
2026-04-21 12:18 -21.17026 -74.52208 40104 ft 418 kts 340°
2026-04-21 12:18 -21.11441 -74.53944 40102 ft 418 kts 340°
2026-04-21 12:19 -21.05850 -74.55681 40091 ft 418 kts 340°
2026-04-21 12:19 -21.00290 -74.57408 40100 ft 419 kts 340°
2026-04-21 12:20 -20.94677 -74.59149 40095 ft 420 kts 340°
2026-04-21 12:20 -20.89059 -74.60892 40099 ft 420 kts 340°
2026-04-21 12:21 -20.83432 -74.62635 40101 ft 421 kts 340°
2026-04-21 12:21 -20.77800 -74.64379 40098 ft 421 kts 340°
2026-04-21 12:22 -20.72159 -74.66124 40104 ft 422 kts 340°
2026-04-21 12:22 -20.66548 -74.67858 40090 ft 423 kts 340°
2026-04-21 12:23 -20.60902 -74.69603 40094 ft 423 kts 340°
2026-04-21 12:23 -20.55236 -74.71351 40101 ft 423 kts 340°
2026-04-21 12:24 -20.49576 -74.73097 40097 ft 423 kts 340°
2026-04-21 12:24 -20.43920 -74.74840 40078 ft 423 kts 341°
2026-04-21 12:25 -20.38263 -74.76582 40097 ft 423 kts 341°
2026-04-21 12:25 -20.32593 -74.78326 40089 ft 424 kts 341°
2026-04-21 12:26 -20.26957 -74.80060 40093 ft 424 kts 341°
2026-04-21 12:26 -20.21250 -74.81813 40099 ft 424 kts 341°
2026-04-21 12:27 -20.15580 -74.83554 40087 ft 424 kts 341°
2026-04-21 12:27 -20.09936 -74.85285 40085 ft 425 kts 341°
2026-04-21 12:28 -20.04257 -74.87026 40088 ft 425 kts 341°
2026-04-21 12:28 -19.98558 -74.88772 40094 ft 426 kts 341°
2026-04-21 12:29 -19.92856 -74.90517 40096 ft 427 kts 341°
2026-04-21 12:29 -19.87147 -74.92263 40092 ft 427 kts 341°
2026-04-21 12:30 -19.81427 -74.94011 40076 ft 427 kts 341°
2026-04-21 12:30 -19.75709 -74.95757 40087 ft 428 kts 341°
2026-04-21 12:31 -19.69984 -74.97504 40096 ft 428 kts 341°
2026-04-21 12:31 -19.64294 -74.99239 40092 ft 428 kts 341°
2026-04-21 12:32 -19.58563 -75.00986 40093 ft 429 kts 341°
2026-04-21 12:32 -19.52815 -75.02736 40090 ft 429 kts 341°
2026-04-21 12:33 -19.47065 -75.04486 40084 ft 429 kts 341°
2026-04-21 12:33 -19.41358 -75.06221 40097 ft 429 kts 341°
2026-04-21 12:34 -19.35608 -75.07967 40093 ft 429 kts 341°
2026-04-21 12:34 -19.29861 -75.09712 40086 ft 429 kts 341°
2026-04-21 12:35 -19.24116 -75.11455 40086 ft 429 kts 341°
2026-04-21 12:35 -19.18410 -75.13185 40071 ft 429 kts 342°
2026-04-21 12:36 -19.12671 -75.14924 40082 ft 429 kts 342°
2026-04-21 12:36 -19.06942 -75.16658 40092 ft 429 kts 342°
2026-04-21 12:37 -19.01198 -75.18395 40085 ft 429 kts 342°
2026-04-21 12:37 -18.95443 -75.20135 40084 ft 430 kts 342°
2026-04-21 12:38 -18.89693 -75.21872 40087 ft 430 kts 342°
2026-04-21 12:38 -18.83963 -75.23602 40071 ft 430 kts 342°
2026-04-21 12:39 -18.78193 -75.25342 40078 ft 431 kts 342°
2026-04-21 12:39 -18.72418 -75.27083 40081 ft 431 kts 342°
2026-04-21 12:40 -18.66671 -75.28814 40085 ft 432 kts 342°
2026-04-21 12:40 -18.60880 -75.30557 40079 ft 432 kts 342°
2026-04-21 12:41 -18.55094 -75.32297 40085 ft 432 kts 342°
2026-04-21 12:41 -18.49300 -75.34039 40085 ft 433 kts 342°
2026-04-21 12:42 -18.44478 -75.35488 40072 ft 433 kts 342°